Vance Air Force Base Enid US
ICAO: KEND
IATA: END
Category: Large
Scheduled Services: No

Elevation: 1307 ft
TransAlt. 18000 ft.

Airport Communications:
APP:118.075
ATIS:115.4
CLNC DEL:22.54
DEP:120.525
GND:121.8
PMSV METRO:34.255
PTD:37.22
TWR:124.05

KEND Zoom In..

Runways:

(A) RW 13 length 4971 ft width 150 ft
---- / hdg 130

(B) RW 17C length 9217 ft width 150 ft
ILS 108.90 / hdg 175

(C) RW 17L length 5024 ft width 150 ft
---- / hdg 175

(D) RW 17R length 9217 ft width 150 ft
---- / hdg 175

(E) RW 31 length 4971 ft width 150 ft
---- / hdg 310

(F) RW 35C length 9217 ft width 150 ft
ILS 110.10 / hdg 355

(G) RW 35L length 9217 ft width 150 ft
---- / hdg 355

(H) RW 35R length 5024 ft width 150 ft
---- / hdg 355

Location; KEND
Day. 14 / Time. 01.56 Zulu
* Altimeter: 29.80
* Temperature: 29° c. 84.2°f.
* Wind from: 120° Speed 10 kn.
Dewpoint: 29° c.
Visibility: 10 Statute Miles.
Clouds: Few 19000 ft.

KEND 140156Z AUTO 12010KT 10SM FEW190 29/29 A2980 RMK AO2 SLP079 T02870286 $

Going to: --> -->


Wind From 120°
Speed 10 kn.

 
 
jpsmedia worldairports.se 2020   terms of use